sat.trackr.live / text

‹ back to catalog

STARLINK-32076

NORAD 60350 · 2024-136X

PAYLOAD ACTIVE UNKNOWN

§ Identity

Operator
Country
US
Launch date
2024-08-02
Launch site
AFETR
Launch vehicle
Mass (kg)
RCS (m²)

Purposes: comms

External: N2YO · Heavens-Above · Gunter

§ Orbital elements

Epoch: 2026-09-21T22:24:44.036064Z

Period
94.01 min
Inclination
53.1589°
Eccentricity
0.0001445
Mean motion
15.31701733 rev/d
Perigee alt
469.7 km
Apogee alt
471.7 km
Semi-major
6,848.9 km
B*
-8.3486e-6
RAAN
242.4806°
Arg perigee
83.1710°
Mean anomaly
276.9456°
Rev number
11,973

§ Raw data

STARLINK-320761 60350U 24136X   26264.93384301 -.00000624  00000+0 -83486-5 0  99982 60350  53.1589 242.4806 0001445  83.1710 276.9456 15.31701733119738

JSON: /api/v1/satellites/60350 · /tle

For live sub-satellite position, see the globe view (requires WebGL).

§ Visibility from observer

Set your observer location to see the next 7 days of passes ≥ 10°. The values pass through the URL so the page stays shareable.

No JS? Fill the form by hand. The geolocation button needs JavaScript.